Worcester, MA

3:46 PM EDT on May 26, 2018 (GMT -0400)
Worcester Regional

Weather History for KORH - June, 2011

Change the Weather History Date:

Thursday, June 30, 2011

  Actual Average Record
Temperature  
Mean Temperature 67 °F 69 °F  
Max Temperature 76 °F 78 °F 92 °F (1964)
Min Temperature 57 °F 60 °F 43 °F (1929)
Degree Days  
Heating Degree Days 0 1  
Month to date heating degree days 89 82  
Since 1 June heating degree days 89 83  
Since 1 July heating degree days 6753 6717  
Cooling Degree Days 2 5  
Month to date cooling degree days 85 84  
Year to date cooling degree days 136 106  
Since 1 June cooling degree days 85 84  
Growing Degree Days 16 (Base 50)    
Moisture  
Dew Point 53 °F    
Average Humidity 65    
Maximum Humidity 86    
Minimum Humidity 43    
Precipitation  
Precipitation 0.00 in 0.12 in 1.90 in (1973)
Month to date precipitation 6.91 4.19  
Year to date precipitation 29.69 23.42  
Snow  
Snow 0.00 in 0.00 in 0.00 in (2002)
Month to date snowfall 0.0 0.0  
Since 1 June snowfall 0.0 0.0  
Since 1 July snowfall 92.6 64.1  
Snow Depth 0.00 in    
Sea Level Pressure  
Sea Level Pressure 29.90 in    
Wind  
Wind Speed 13 mph (West)    
Max Wind Speed 23 mph    
Max Gust Speed 29 mph    
Visibility 10 miles    
Events      
T = Trace of Precipitation, MM = Missing Value Source: NWS Daily Summary

Daily Weather History Graph

Daily Weather History Graph

Search for Another Location

Airport or City:

Astronomy

Jun. 30, 2011 Rise Set
Actual Time 5:14 AM EDT 8:28 PM EDT
Civil Twilight 4:39 AM EDT 9:02 PM EDT
Nautical Twilight 3:55 AM EDT 9:47 PM EDT
Astronomical Twilight 3:00 AM EDT 10:40 PM EDT
Moon 4:25 AM EDT (6/30) 7:58 PM EDT (6/30)
Length of Visible Light 16h 22m
Length of Day
15h 13m
Waning Crescent, 1% of the Moon is Illuminated
Jun 30
Waning Crescent
Jul 1
New
Jul 8
First Quarter
Jul 15
Full
Jul 23
Last Quarter

Hourly Weather History & Observations

Time (EDT) Temp. Dew Point Humidity Pressure Visibility Wind Dir Wind Speed Gust Speed Precip Events Conditions
12:54 AM 60.1 °F 53.1 °F 78% 29.86 in 10.0 mi WNW 19.6 mph 25.3 mph N/A   Clear
1:54 AM 60.1 °F 53.1 °F 78% 29.86 in 10.0 mi West 12.7 mph 23.0 mph N/A   Partly Cloudy
2:54 AM 57.0 °F 53.1 °F 87% 29.86 in 10.0 mi West 10.4 mph - N/A   Clear
3:54 AM 57.0 °F 54.0 °F 89% 29.86 in 10.0 mi West 12.7 mph - N/A   Clear
4:54 AM 57.0 °F 54.0 °F 89% 29.88 in 10.0 mi West 13.8 mph - N/A   Clear
5:54 AM 57.9 °F 54.0 °F 87% 29.88 in 10.0 mi West 13.8 mph - N/A   Clear
6:54 AM 60.1 °F 54.0 °F 80% 29.89 in 10.0 mi West 15.0 mph - N/A   Clear
7:54 AM 63.0 °F 55.0 °F 75% 29.90 in 10.0 mi West 19.6 mph 25.3 mph N/A   Clear
8:54 AM 66.0 °F 54.0 °F 65% 29.90 in 10.0 mi WNW 17.3 mph 25.3 mph N/A   Clear
9:54 AM 69.8 °F 55.4 °F 60% 29.91 in 10.0 mi West 17.3 mph 24.2 mph N/A   Clear
10:54 AM 69.8 °F 53.6 °F 56% 29.93 in 10.0 mi West 15.0 mph 24.2 mph N/A   Partly Cloudy
11:54 AM 72.0 °F 54.0 °F 53% 29.92 in 10.0 mi West 11.5 mph 19.6 mph N/A   Scattered Clouds
12:54 PM 73.0 °F 53.1 °F 49% 29.91 in 10.0 mi WNW 15.0 mph 21.9 mph N/A   Mostly Cloudy
1:54 PM 73.9 °F 53.1 °F 48% 29.91 in 10.0 mi WNW 16.1 mph 19.6 mph N/A   Mostly Cloudy
2:54 PM 75.0 °F 53.1 °F 46% 29.91 in 10.0 mi West 11.5 mph 19.6 mph N/A   Scattered Clouds
3:54 PM 75.9 °F 52.0 °F 43% 29.89 in 10.0 mi West 12.7 mph 17.3 mph N/A   Partly Cloudy
4:54 PM 75.0 °F 52.0 °F 44% 29.89 in 10.0 mi WNW 12.7 mph - N/A   Partly Cloudy
5:54 PM 75.0 °F 52.0 °F 44% 29.88 in 10.0 mi West 13.8 mph 20.7 mph N/A   Clear
6:54 PM 73.0 °F 51.1 °F 46% 29.90 in 10.0 mi West 10.4 mph - N/A   Clear
7:54 PM 69.8 °F 51.8 °F 53% 29.92 in 10.0 mi West 10.4 mph - N/A   Clear
8:54 PM 66.9 °F 51.1 °F 57% 29.92 in 10.0 mi West 11.5 mph - N/A   Clear
9:54 PM 66.0 °F 50.0 °F 56% 29.94 in 10.0 mi West 10.4 mph - N/A   Clear
10:54 PM 64.0 °F 50.0 °F 60% 29.95 in 10.0 mi West 9.2 mph - N/A   Clear
11:54 PM 62.1 °F 50.0 °F 65% 29.94 in 10.0 mi WNW 11.5 mph - N/A   Clear